EHI
0 0 0 0 0 0 0 0 0 0 0 0 0 0 0 0 0 1 2 3 3 3 1 0 0 0 0 1 2 3 3 3 4 5 6 6 6 5 4 3 1 0 0 0
0 0 0 0 0 0 0 0 0 0 0 0 0 0 0 0 0 0 1 2 3 3 3 2 1 1 0 0 1 3 3 4 5 7 7 7 6 5 4 4 2 1 1 0
0 0 0 0 0 0 0 0 0 0 0 0 0 0 0 0 0 0 0 1 2 4 5 4 3 2 1 0 1 2 4 6 8 9 10 8 7 6 6 5 4 3 3 2
0 0 0 0 0 0 0 0 0 0 0 0 0 0 0 0 0 0 0 0 1 4 5 5 4 3 2 1 0 1 3 6 9 11 12 10 8 6 6 6 5 5 5 4
0 0 0 0 0 0 0 0 0 0 0 0 0 0 0 0 0 0 0 0 1 2 3 4 3 3 3 2 1 0 1 4 8 11 12 11 9 6 6 5 5 5 5 5
0 0 0 0 0 0 0 0 0 0 0 0 0 0 0 0 0 0 0 0 1 1 2 3 4 4 4 3 1 0 0 3 7 10 12 12 10 7 5 4 3 2 2 3
0 0 0 0 0 0 0 0 0 0 0 0 0 0 0 0 0 0 0 1 2 1 1 3 4 5 6 3 1 0 0 2 7 11 12 12 11 8 4 3 3 2 1 1
0 0 0 0 0 0 0 0 0 0 0 0 0 0 0 0 0 0 0 1 2 1 1 1 3 5 5 3 1 0 0 2 6 11 13 13 10 7 5 4 3 1 1 2
0 0 0 0 0 0 0 0 0 0 0 0 0 0 0 0 0 0 0 1 1 0 0 0 2 3 3 2 2 1 0 1 5 10 13 12 9 7 6 5 4 2 2 2
0 0 0 0 0 0 0 0 0 0 0 0 0 0 0 0 0 1 0 0 0 0 0 0 1 2 2 1 2 1 1 2 4 7 10 10 8 7 7 7 5 3 2 2
0 0 0 0 0 0 0 0 0 0 0 0 0 0 0 0 0 0 0 0 0 0 0 0 1 1 1 0 1 1 1 3 5 6 8 9 8 7 8 8 6 4 3 2
0 0 0 0 0 0 0 0 0 0 0 0 0 0 0 0 0 0 0 0 0 0 0 0 0 0 0 0 0 0 1 2 4 5 6 7 7 7 7 8 7 5 5 4
0 0 0 0 0 0 0 0 0 0 0 0 0 0 0 0 0 0 0 0 0 0 0 0 0 0 0 0 0 0 0 1 2 3 3 4 4 5 6 6 6 6 5 5
0 0 0 0 0 0 0 0 0 0 0 0 0 0 0 0 0 0 0 0 0 0 0 0 0 0 0 1 1 1 1 0 1 1 1 1 2 3 5 5 5 4 4 4
0 0 0 0 0 0 0 0 0 0 0 0 0 0 0 0 0 0 0 0 0 0 0 0 0 0 1 2 2 2 2 1 1 0 0 0 1 3 5 5 5 4 3 3
0 0 0 0 0 0 0 0 0 0 0 0 0 0 0 0 0 0 0 0 0 0 0 0 0 0 1 2 3 3 3 2 1 0 0 0 0 2 5 7 7 5 3 2
0 0 0 0 0 0 0 0 0 0 0 0 0 0 0 0 0 0 0 0 0 0 0 0 0 0 1 1 2 2 2 2 1 0 0 0 0 1 4 6 6 5 3 2
0 0 0 0 0 0 0 0 0 0 0 0 0 0 0 0 0 0 0 0 0 0 0 0 0 0 0 0 1 1 1 1 0 0 0 0 1 2 3 4 4 3 1 1
0 0 0 0 0 0 0 0 0 0 0 0 0 0 0 0 0 0 0 0 0 0 0 0 0 0 0 0 0 0 0 0 0 0 0 0 1 2 3 3 3 2 1 0
0 0 0 0 0 0 0 0 0 0 0 0 0 0 0 0 0 0 0 0 0 0 0 0 0 0 0 0 0 0 0 0 0 0 0 0 1 2 3 3 3 2 1 0
0 0 0 0 0 0 0 0 0 0 0 0 0 0 0 0 0 0 0 0 0 0 0 0 0 0 0 0 0 0 0 0 0 0 0 0 1 2 3 3 3 2 1 0
0 0 0 0 0 0 0 0 0 0 0 0 0 0 0 0 0 0 0 0 0 0 0 0 0 0 0 1 1 1 1 0 0 0 0 0 1 3 3 3 3 2 1 0
0 0 0 0 0 0 0 0 0 0 0 0 0 0 0 0 0 0 0 0 0 0 0 0 0 0 0 1 2 2 1 0 0 0 0 0 2 3 3 3 3 3 1 1
0 0 0 0 0 0 0 0 0 0 0 0 0 0 0 0 0 0 0 0 0 0 0 0 0 0 0 1 1 2 1 0 0 0 0 0 1 2 2 3 3 3 3 2
0 0 0 0 0 0 0 0 0 0 0 0 0 0 0 0 0 0 0 0 0 0 0 0 0 0 0 0 0 0 0 0 0 0 0 0 0 1 1 1 2 2 2 2
0 0 0 0 0 0 0 0 0 0 0 0 0 0 0 0 0 0 0 0 0 0 0 0 0 0 0 0 0 0 0 0 0 0 0 0 0 0 0 0 1 1 1 1
Wind_Speed
7 6 6 5 5 7 7 7 7 5 4 6 7 7 8 9 8 8 7 8 9 9 9 8 8 7 7 6 6 7 7 6 4 3 3 2 2 2 2 2 2 2 1 2
6 8 6 5 6 9 10 9 7 5 4 6 7 8 7 7 9 8 7 7 8 8 10 9 9 8 8 7 6 7 6 6 5 3 2 2 2 2 2 1 1 2 2 2
8 5 5 7 9 9 10 8 7 6 7 8 8 8 8 7 8 7 7 6 6 8 9 9 9 9 8 7 7 6 6 7 6 5 3 2 2 1 1 1 1 1 2 1
7 8 6 7 8 8 8 7 7 8 8 6 7 5 6 6 7 8 7 6 5 5 7 8 8 8 8 7 6 7 7 7 7 6 5 4 3 3 2 2 2 2 2 2
6 6 7 7 7 7 7 7 8 10 9 9 9 7 4 6 6 6 6 6 5 5 7 7 7 8 8 7 6 6 6 7 7 7 6 5 3 3 2 2 3 2 2 2
9 7 6 7 6 6 7 9 10 10 8 9 9 7 3 3 4 5 5 5 5 4 6 7 7 7 6 5 5 5 5 5 6 7 7 6 5 4 3 3 3 2 2 2
9 10 8 6 8 8 9 7 5 5 6 6 6 6 2 3 3 3 4 4 5 4 4 5 7 7 6 6 5 5 6 5 6 6 7 7 6 5 5 4 3 3 2 2
8 7 7 5 6 6 8 8 5 4 5 5 5 3 3 5 5 4 4 4 4 4 5 4 5 5 5 6 6 5 6 6 6 6 6 6 6 4 4 4 3 3 2 3
6 4 4 5 6 7 7 7 8 7 9 8 5 2 2 4 5 4 4 5 4 4 4 5 5 5 4 5 5 5 6 5 6 6 5 5 6 5 4 5 4 3 3 3
8 7 6 5 7 9 9 8 6 6 6 6 5 3 2 4 4 4 4 4 4 4 3 4 4 4 4 4 4 4 4 5 5 5 5 4 4 5 4 4 4 4 4 3
8 8 6 6 7 7 7 8 7 6 6 5 4 2 1 3 4 4 5 5 4 4 3 4 3 3 3 3 3 3 3 3 4 5 4 4 4 4 4 4 5 4 4 4
5 6 8 7 5 6 7 8 7 6 6 6 5 2 2 4 4 5 5 4 3 3 3 3 3 3 3 3 3 2 2 2 3 3 4 4 4 4 4 4 4 4 4 4
5 6 7 5 5 4 6 6 6 7 7 6 6 2 2 4 3 4 4 3 3 3 3 3 3 2 3 2 2 2 2 1 1 2 3 3 3 4 4 4 4 4 4 4
5 7 8 7 6 6 7 8 8 8 7 7 6 4 1 2 3 3 3 3 3 2 2 2 2 2 2 2 2 2 2 1 1 2 2 3 3 3 3 3 3 3 3 4
5 8 10 10 9 10 10 10 9 10 10 9 7 5 3 1 1 1 2 2 2 2 2 2 1 1 1 1 1 1 2 1 1 1 2 2 2 2 2 3 3 3 3 4
7 8 10 11 11 11 12 11 11 10 10 10 9 6 3 2 2 1 1 2 2 2 2 2 1 1 0 1 1 1 1 2 1 1 1 0 1 2 2 2 2 2 2 3
6 8 9 9 8 10 11 8 8 8 8 8 7 4 3 3 3 3 2 2 1 1 1 1 1 1 1 1 1 1 1 1 1 1 1 1 1 2 2 2 2 3 3 3
8 7 5 7 8 10 3 2 3 4 5 4 3 2 2 3 2 2 2 2 1 1 1 1 1 1 1 1 1 1 1 1 2 2 2 1 1 1 1 1 2 2 2 3
8 7 5 5 7 8 4 2 3 4 4 2 2 2 3 3 3 2 2 3 2 1 1 0 1 1 1 1 1 1 1 1 2 2 2 2 1 0 1 1 2 2 2 2
8 8 6 6 7 7 1 2 4 4 4 2 2 2 3 4 3 3 4 3 2 2 2 2 1 1 1 1 1 1 1 1 2 2 2 2 1 1 2 2 2 1 2 2
6 7 8 8 8 5 2 3 3 3 2 6 5 4 4 4 4 4 4 4 3 2 2 2 2 1 1 1 1 1 1 2 2 1 1 2 2 2 2 2 1 1 1 1
5 5 6 6 7 4 3 2 1 3 4 5 5 5 5 4 5 5 4 4 4 3 2 2 2 2 1 1 1 1 2 2 1 1 1 1 2 2 1 1 1 1 1 1
4 4 3 3 2 2 3 4 3 4 4 4 4 4 5 5 5 5 4 3 3 3 2 1 1 2 1 1 1 1 2 1 1 1 1 1 1 1 1 1 1 1 1 1
4 4 5 5 2 1 2 3 4 4 4 5 4 4 5 5 5 5 4 3 2 2 2 1 1 1 2 2 2 1 1 1 1 1 1 1 1 1 1 1 1 0 1 1
4 4 6 7 4 2 2 2 3 5 5 5 4 4 4 4 4 5 5 3 2 2 1 1 1 2 2 2 2 2 1 1 1 2 1 1 1 1 1 1 0 1 1 2
6 6 6 6 5 4 4 3 4 4 4 5 5 5 4 4 4 4 4 3 2 2 1 1 1 2 2 2 2 2 2 2 2 1 0 1 1 1 1 1 1 3 2 2
Wind_Direction
209 224 227 235 246 267 273 267 268 261 234 239 238 233 219 202 205 208 198 192 188 184 179 171 166 162 159 160 159 157 155 152 146 142 134 134 142 142 127 128 129 120 97 90
222 225 234 235 249 258 261 263 265 265 245 254 253 250 231 205 210 205 203 199 192 183 175 169 166 167 170 170 169 161 157 153 147 143 148 154 146 140 130 122 124 134 124 108
239 238 223 239 246 251 258 263 270 278 275 261 259 254 228 205 204 200 204 199 195 185 175 169 171 171 169 171 170 167 163 156 154 151 142 133 116 121 134 147 151 150 140 136
246 244 239 244 251 256 261 265 271 269 267 264 249 260 218 196 195 193 193 188 186 180 170 165 166 168 168 170 169 169 166 162 159 156 155 161 161 172 186 168 171 172 172 161
244 243 243 246 253 263 273 278 268 267 268 270 261 258 230 190 195 184 173 171 174 175 168 167 167 166 167 168 168 172 171 168 164 166 163 171 170 178 177 166 168 176 178 173
248 249 253 256 258 259 265 268 261 253 256 256 251 252 235 199 182 166 161 156 159 158 162 165 160 155 162 158 157 170 174 174 169 170 169 175 174 176 174 174 173 183 182 185
241 235 224 238 250 240 244 253 258 241 229 239 236 236 196 145 133 123 138 141 137 134 143 152 154 155 157 161 165 174 178 179 175 176 180 179 180 184 184 180 185 183 180 181
249 237 212 213 244 254 247 243 251 267 270 275 256 225 152 131 123 115 107 114 114 119 125 124 131 142 155 163 168 177 183 184 181 183 189 183 181 184 181 183 179 182 181 180
281 257 211 211 229 251 257 246 258 272 278 275 253 213 153 132 128 133 125 117 120 120 126 132 126 128 141 156 168 181 184 188 186 186 191 187 182 180 179 184 180 174 171 173
281 282 248 220 227 229 245 268 269 260 275 274 269 248 212 165 150 137 122 115 115 117 117 119 122 129 132 144 162 167 172 184 184 185 190 185 185 182 179 174 178 177 173 174
281 274 259 227 232 242 235 242 255 263 258 269 278 278 83 107 106 99 98 99 103 108 110 111 109 122 130 133 146 158 172 177 182 185 187 187 188 185 182 180 180 175 174 173
275 279 267 251 241 252 253 255 260 267 276 271 269 263 74 76 81 85 81 82 90 99 107 114 118 125 130 137 145 155 173 177 181 184 185 186 184 185 186 186 183 179 180 182
316 277 276 263 229 221 250 254 262 268 271 266 265 241 115 90 77 91 92 91 91 93 97 106 117 124 132 144 150 151 165 167 167 181 184 183 188 188 192 190 186 186 181 184
297 267 264 266 279 280 262 261 264 266 262 268 267 267 328 63 72 75 83 86 97 104 113 108 119 123 130 144 147 151 154 163 168 178 195 195 195 191 192 185 183 187 183 182
266 272 277 277 276 279 274 269 260 259 265 270 279 283 292 347 53 87 83 75 76 83 93 100 101 114 131 147 147 145 155 165 171 188 203 199 190 191 189 184 189 191 190 193
253 269 278 275 270 269 270 260 254 254 263 270 274 278 297 332 16 360 57 71 66 44 60 50 52 66 169 166 154 159 158 165 172 178 188 179 206 189 186 191 192 196 192 193
264 270 282 278 271 272 260 253 244 245 252 265 273 288 343 352 2 358 22 65 73 43 56 17 330 308 286 271 196 184 181 162 159 157 148 170 223 195 193 201 195 200 197 195
269 276 278 280 275 258 254 309 283 259 262 273 280 325 343 347 354 360 342 344 335 349 18 349 312 300 290 295 275 206 176 171 167 170 177 182 214 210 198 205 218 211 201 204
245 255 262 265 271 268 252 286 300 281 275 311 324 337 337 327 307 279 336 340 338 3 344 264 267 277 287 297 274 228 202 188 177 187 189 164 171 198 190 219 234 226 216 212
230 240 250 260 265 268 286 18 341 297 260 2 337 339 334 324 299 304 336 340 340 3 8 4 1 342 308 275 248 225 227 212 207 193 172 153 167 191 214 222 228 248 230 218
229 237 239 253 261 268 2 6 337 286 3 16 7 3 355 340 332 330 339 357 13 13 15 10 358 332 297 287 233 227 249 245 229 189 161 155 179 205 209 207 220 236 236 232
240 243 243 248 254 254 46 37 4 357 10 0 2 6 357 343 337 341 346 353 6 5 4 358 344 325 314 301 254 236 256 264 237 176 163 184 197 216 195 174 197 209 217 240
248 257 273 259 268 24 26 20 17 349 343 345 348 349 341 330 331 337 334 341 352 346 338 343 336 330 340 332 296 256 263 273 260 171 194 211 196 175 162 151 165 194 190 198
285 308 288 276 241 296 351 358 349 333 329 333 333 328 320 319 326 326 320 324 333 337 330 329 324 328 339 336 328 314 321 309 256 224 227 199 173 131 96 116 139 159 182 190
299 299 282 277 282 274 289 312 320 321 324 324 322 316 316 314 314 318 313 317 320 316 304 306 301 308 316 330 345 354 349 317 272 240 225 180 138 132 119 90 72 162 146 151
265 265 266 275 289 290 290 291 305 308 314 318 322 321 314 303 304 310 309 314 314 306 311 299 308 315 324 336 336 351 342 316 295 272 237 139 139 138 136 133 63 51 82 95